Detroit Metro, MI

6:41 PM EDT on May 26, 2018 (GMT -0400)
Detroit Metro Wayne County

Weather History for KDTW - December, 2012

Change the Weather History Date:

Wednesday, December 12, 2012

  Actual Average Record
Temperature  
Mean Temperature 34 °F 31 °F  
Max Temperature 43 °F 37 °F 63 °F (2015)
Min Temperature 24 °F 25 °F -2 °F (1988)
Degree Days  
Heating Degree Days 31 34  
Month to date heating degree days 282 385  
Since 1 July heating degree days 1508 1600  
Cooling Degree Days 0 0  
Month to date cooling degree days 0 0  
Year to date cooling degree days 1156 803  
Moisture  
Dew Point 23 °F    
Average Humidity 67    
Maximum Humidity 88    
Minimum Humidity 45    
Precipitation  
Precipitation 0.00 in 0.08 in 1.39 in (1946)
Month to date precipitation 0.69 0.99  
Year to date precipitation 25.16 32.00  
Snow  
Snow 0.00 in 0.30 in 6.30 in (2010)
Month to date snowfall 0.0 2.9  
Since 1 July snowfall 0.4 4.5  
Snow Depth 0.00 in    
Sea Level Pressure  
Sea Level Pressure 30.33 in    
Wind  
Wind Speed 8 mph (South)    
Max Wind Speed 15 mph    
Max Gust Speed 20 mph    
Visibility 10 miles    
Events      
T = Trace of Precipitation, MM = Missing Value Source: NWS Daily Summary

Daily Weather History Graph

Daily Weather History Graph

Search for Another Location

Airport or City:

Astronomy

Dec. 12, 2012 Rise Set
Actual Time 7:53 AM EST 5:01 PM EST
Civil Twilight 7:21 AM EST 5:33 PM EST
Nautical Twilight 6:46 AM EST 6:08 PM EST
Astronomical Twilight 6:12 AM EST 6:42 PM EST
Moon 6:55 AM EST (12/12) 4:37 PM EST (12/12)
Length of Visible Light 10h 11m
Length of Day
9h 08m
Waning Crescent, 1% of the Moon is Illuminated
Dec 12
Waning Crescent
Dec 13
New
Dec 20
First Quarter
Dec 28
Full
Jan 4
Last Quarter

Hourly Weather History & Observations

Time (EST) Temp. Windchill Dew Point Humidity Pressure Visibility Wind Dir Wind Speed Gust Speed Precip Events Conditions
12:53 AM 28.0 °F 17.5 °F 21.9 °F 78% 30.20 in 10.0 mi SSW 12.7 mph - N/A   Clear
1:53 AM 28.0 °F 19.3 °F 21.9 °F 78% 30.22 in 10.0 mi SSW 9.2 mph - N/A   Clear
2:53 AM 28.0 °F 19.3 °F 21.9 °F 78% 30.24 in 10.0 mi SSW 9.2 mph - N/A   Clear
3:53 AM 26.1 °F 18.4 °F 21.0 °F 81% 30.26 in 10.0 mi SSW 6.9 mph - N/A   Partly Cloudy
4:53 AM 25.0 °F 17.1 °F 21.0 °F 85% 30.26 in 10.0 mi South 6.9 mph - N/A   Partly Cloudy
5:53 AM 25.0 °F 16.3 °F 21.0 °F 85% 30.28 in 10.0 mi South 8.1 mph - N/A   Scattered Clouds
6:53 AM 24.1 °F 15.2 °F 19.9 °F 84% 30.30 in 10.0 mi South 8.1 mph - N/A   Scattered Clouds
7:53 AM 25.0 °F 16.3 °F 21.0 °F 85% 30.31 in 7.0 mi South 8.1 mph - N/A   Partly Cloudy
8:53 AM 27.0 °F 18.7 °F 21.9 °F 81% 30.33 in 7.0 mi South 8.1 mph - N/A   Partly Cloudy
9:53 AM 30.9 °F 22.8 °F 23.0 °F 72% 30.36 in 10.0 mi SSW 9.2 mph - N/A   Partly Cloudy
10:53 AM 34.0 °F 26.6 °F 24.1 °F 67% 30.38 in 10.0 mi SSW 9.2 mph - N/A   Partly Cloudy
11:53 AM 37.9 °F 30.9 °F 23.0 °F 55% 30.38 in 10.0 mi SW 10.4 mph - N/A   Partly Cloudy
12:53 PM 42.1 °F 35.7 °F 24.1 °F 49% 30.37 in 10.0 mi SSW 11.5 mph - N/A   Partly Cloudy
1:53 PM 42.1 °F 35.7 °F 24.1 °F 49% 30.36 in 10.0 mi SW 11.5 mph - N/A   Scattered Clouds
2:53 PM 43.0 °F 37.2 °F 23.0 °F 45% 30.35 in 10.0 mi SW 10.4 mph - N/A   Scattered Clouds
3:53 PM 41.0 °F 35.2 °F 23.0 °F 49% 30.36 in 10.0 mi South 9.2 mph - N/A   Partly Cloudy
4:53 PM 37.0 °F 31.0 °F 24.1 °F 59% 30.37 in 10.0 mi South 8.1 mph - N/A   Partly Cloudy
5:53 PM 33.1 °F 26.1 °F 23.0 °F 66% 30.38 in 10.0 mi South 8.1 mph - N/A   Partly Cloudy
6:53 PM 35.1 °F 29.3 °F 24.1 °F 64% 30.39 in 10.0 mi SSE 6.9 mph - N/A   Clear
7:53 PM 30.9 °F 26.2 °F 23.0 °F 72% 30.40 in 10.0 mi South 4.6 mph - N/A   Clear
8:53 PM 32.0 °F 25.6 °F 24.1 °F 73% 30.40 in 10.0 mi South 6.9 mph - N/A   Clear
9:53 PM 28.9 °F 21.9 °F 23.0 °F 78% 30.40 in 10.0 mi South 6.9 mph - N/A   Clear
10:53 PM 30.0 °F 23.2 °F 23.0 °F 75% 30.40 in 10.0 mi South 6.9 mph - N/A   Clear
11:53 PM 28.9 °F 23.9 °F 23.0 °F 78% 30.40 in 10.0 mi South 4.6 mph - N/A   Clear